Location: Dortmund
(51.5019°N, 7.6520°E)
Time: 08:30:12
(UTC+02:00)

ISS - Pass Details

Date: 10 February 2018
Orbit: 402 x 406 km, 51.6° (Epoch: 21 June)

Event Time Altitude Azimuth Distance (km) Brightness Sun altitude
Rises 18:30:37 0° 284° (WNW) 2,321 1.4 -9.1°
Reaches altitude 10° 18:32:46 10° 275° (W) 1,460 0.4 -9.4°
Maximum altitude 18:35:49 36° 207° (SSW) 652 -2.4 -9.9°
Drops below altitude 10° 18:38:51 10° 139° (SE) 1,456 -1.3 -10.3°
Enters shadow 18:39:56 - 133° (SE) 1,878 -0.8 -10.5°
